Date,TemperatureHighF,TemperatureAvgF,TemperatureLowF,DewpointHighF,DewpointAvgF,DewpointLowF,HumidityHigh,HumidityAvg,HumidityLow,PressureMaxIn,PressureMinIn,WindSpeedMaxMPH,WindSpeedAvgMPH,GustSpeedMaxMPH,PrecipitationSumIn
2013-1-1,77,65,52,67,60,47,88,83,68,30.10,29.93,6,2,11,0.10
2013-1-2,56,52,45,51,45,40,83,78,71,30.20,30.01,6,3,11,0.05
2013-1-3,49,43,37,40,36,32,85,78,56,30.37,30.19,7,2,12,0.31
2013-1-4,60,44,35,42,32,26,83,67,31,30.44,30.32,5,1,8,0.00
2013-1-5,54,47,39,41,37,33,85,67,49,30.38,30.25,3,0,6,0.00
2013-1-6,53,49,42,47,42,38,88,78,65,30.30,30.19,4,1,9,0.06
2013-1-7,63,47,37,47,38,32,86,73,36,30.33,30.20,3,1,9,0.00
2013-1-8,68,58,45,59,51,40,84,79,69,30.25,30.14,3,0,7,0.00
2013-1-9,70,66,60,65,61,55,88,84,80,30.25,30.17,2,1,6,0.01
2013-1-10,74,69,63,69,64,59,88,86,81,30.23,30.03,5,1,12,0.54
2013-1-11,79,70,63,69,64,59,89,82,65,30.15,30.06,4,1,9,0.00
2013-1-12,76,72,70,70,67,66,89,86,74,30.12,29.98,2,0,6,0.01
2013-1-13,78,74,66,70,68,61,89,83,75,30.04,29.95,3,1,9,0.08
2013-1-14,68,57,46,62,52,42,86,84,78,30.13,30.03,6,2,8,0.01
2013-1-15,72,58,46,68,54,42,88,86,80,30.09,29.94,4,0,10,0.38
2013-1-16,62,50,44,58,46,40,87,84,81,30.07,29.95,5,2,12,0.08
2013-1-17,53,44,38,39,35,32,85,71,52,30.37,30.05,11,5,24,0.02
2013-1-18,60,46,36,43,35,32,83,69,39,30.52,30.37,5,2,10,0.00
2013-1-19,64,47,36,49,38,31,86,75,48,30.41,30.25,3,0,5,0.00
2013-1-20,68,50,38,52,42,33,87,74,43,30.28,30.13,3,0,9,0.00
2013-1-21,68,53,42,48,42,38,86,70,39,30.22,30.13,5,1,9,0.00
2013-1-22,63,47,39,46,35,26,83,66,34,30.38,30.22,4,1,9,0.00
2013-1-23,68,50,36,51,42,31,86,74,49,30.41,30.30,3,1,10,0.00
2013-1-24,74,57,43,58,49,38,87,76,52,30.35,30.22,5,1,10,0.00
2013-1-25,72,58,47,59,51,42,87,77,57,30.28,30.15,7,1,13,0.00
2013-1-26,74,61,52,62,54,47,88,79,54,30.26,30.18,4,1,9,0.00
2013-1-27,72,60,49,62,53,44,90,81,66,30.32,30.24,2,0,4,0.00
2013-1-28,75,65,54,65,59,50,88,81,66,30.28,30.16,2,0,4,0.00
2013-1-29,78,73,68,70,67,64,87,83,75,30.16,29.88,4,1,11,0.25
2013-1-30,75,64,46,70,56,30,88,78,51,30.13,29.71,10,4,16,0.69
2013-1-31,61,47,35,39,32,23,83,61,24,30.33,30.12,7,2,11,0.00